Location: Feydey
(46.3431°N, 7.0106°E)
Time: 08:52:45
(UTC+00:00)

deb Atmosphere 2 - Pass Details

Date: 06 February 2022
Orbit: 828 x 839 km, 98.6° (Epoch: 21 May)

Event Time Altitude Azimuth Distance (km) Brightness Sun altitude
Rises 03:20:39 0° 33° (NNE) 3,395 ? -36.1°
Reaches altitude 10° 03:24:50 10° 65° (ENE) 2,450 ? -35.4°
Maximum altitude 03:26:46 12° 86° (E) 2,318 ? -35.1°
Drops below altitude 10° 03:28:41 10° 107° (ESE) 2,441 ? -34.8°
Sets 03:32:48 0° 138° (SE) 3,364 ? -34.1°
